Weather History for Thessaloniki, Greece

Change the Weather History Date:

Wednesday, October 2, 2013

  Actual Average Record
Temperature  
Mean Temperature 62 °F -  
Max Temperature 68 °F 69 °F 84 °F (1999)
Min Temperature 57 °F 51 °F 50 °F (1996)
Degree Days  
Heating Degree Days 2    
Growing Degree Days 12 (Base 50)    
Moisture  
Dew Point 46 °F    
Average Humidity 54    
Maximum Humidity 82    
Minimum Humidity 34    
Precipitation  
Precipitation 0.01 in 0.05 in - ()
Sea Level Pressure  
Sea Level Pressure 29.84 in    
Wind  
Wind Speed 13 mph ()    
Max Wind Speed 23 mph    
Max Gust Speed 34 mph    
Visibility 6.2 miles    
Events Rain , Thunderstorm    
Averages and records for this station are not official NWS values.
T = Trace of Precipitation, MM = Missing Value Source: Averaged Metar Reports

Daily Weather History Graph

Daily Weather History Graph

Search for Another Location

Airport:

Trip Planner

Search our weather history database for the weather conditions in past years. The results will help you decide how hot, cold, wet, or windy it might be!

Date:

Astronomy

Oct. 02, 2013 Rise Set
Actual Time 7:25 AM EEST 7:08 PM EEST
Civil Twilight 6:58 AM EEST 7:35 PM EEST
Nautical Twilight 6:26 AM EEST 8:07 PM EEST
Astronomical Twilight 5:54 AM EEST 8:39 PM EEST
Moon 4:39 AM EEST (10/2) 5:35 PM EEST (10/2)
Length of Visible Light 12h 37m
Length of Day
11h 43m
Waning Crescent, 8% of the Moon is Illuminated
Oct 2
Waning Crescent
Oct 5
New
Oct 12
First Quarter
Oct 19
Full
Oct 27
Last Quarter

Hourly Weather History & Observations

Time (EEST) Temp. Dew Point Humidity Pressure Visibility Wind Dir Wind Speed Gust Speed Precip Events Conditions
12:20 AM 62.6 °F 48.2 °F 59% 29.68 in - North - - N/A   Scattered Clouds
1:20 AM 62.6 °F 46.4 °F 55% 29.68 in 6.2 mi North 17.3 mph - N/A   Scattered Clouds
1:50 AM 64.4 °F 46.4 °F 52% 29.68 in 6.2 mi NNW 19.6 mph 31.1 mph N/A   Scattered Clouds
2:20 AM 64.4 °F 46.4 °F 52% 29.71 in 6.2 mi NNW 23.0 mph 34.5 mph N/A   Scattered Clouds
2:50 AM 62.6 °F 46.4 °F 55% 29.68 in 6.2 mi NNW 23.0 mph 34.5 mph N/A   Scattered Clouds
3:00 AM 63 °F 46 °F 43% 29.71 in 6 mi NNW 23.0 mph - -   Scattered Clouds
3:20 AM 62.6 °F 46.4 °F 55% 29.68 in 6.2 mi NNW 20.7 mph 32.2 mph N/A   Partly Cloudy
3:50 AM 60.8 °F 44.6 °F 55% 29.71 in 6.2 mi North 16.1 mph 27.6 mph N/A   Partly Cloudy
4:20 AM 60.8 °F 44.6 °F 55% 29.71 in 6.2 mi North 16.1 mph 27.6 mph N/A   Partly Cloudy
4:50 AM 60.8 °F 44.6 °F 55% 29.71 in 6.2 mi North 16.1 mph 27.6 mph N/A   Partly Cloudy
5:20 AM 60.8 °F 44.6 °F 55% 29.71 in 6.2 mi North 16.1 mph 29.9 mph N/A   Partly Cloudy
5:50 AM 60.8 °F 44.6 °F 55% 29.74 in 6.2 mi North 20.7 mph 32.2 mph N/A   Partly Cloudy
6:20 AM 60.8 °F 44.6 °F 55% 29.74 in 6.2 mi North 17.3 mph 28.8 mph N/A   Partly Cloudy
6:50 AM 60.8 °F 42.8 °F 52% 29.74 in 6.2 mi NNW 13.8 mph 25.3 mph N/A   Partly Cloudy
7:20 AM 60.8 °F 42.8 °F 52% 29.77 in 6.2 mi North 10.4 mph 21.9 mph N/A   Scattered Clouds
7:50 AM 59.0 °F 42.8 °F 55% 29.77 in 6.2 mi NNE 18.4 mph - N/A   Scattered Clouds
8:20 AM 59.0 °F 41.0 °F 51% 29.80 in 6.2 mi NNE 19.6 mph - N/A   Scattered Clouds
8:50 AM 59.0 °F 42.8 °F 55% 29.80 in 6.2 mi North 13.8 mph 25.3 mph N/A   Scattered Clouds
9:00 AM 59 °F 42 °F 42% 29.82 in 6 mi North 13.8 mph - -   Scattered Clouds
9:20 AM 59.0 °F 42.8 °F 55% 29.83 in 6.2 mi North 15.0 mph - N/A   Scattered Clouds
9:50 AM 60.8 °F 44.6 °F 55% 29.83 in 6.2 mi NNW 13.8 mph - N/A   Scattered Clouds
10:20 AM 62.6 °F 44.6 °F 52% 29.83 in 6.2 mi NW 16.1 mph - N/A   Scattered Clouds
10:50 AM 64.4 °F 44.6 °F 49% 29.83 in 6.2 mi NNW 16.1 mph - N/A   Scattered Clouds
11:20 AM 66.2 °F 44.6 °F 46% 29.86 in 6.2 mi NNW 11.5 mph - N/A   Scattered Clouds
11:50 AM 66.2 °F 44.6 °F 46% 29.86 in 6.2 mi NW 16.1 mph - N/A   Scattered Clouds
12:20 PM 66.2 °F 44.6 °F 46% 29.86 in 6.2 mi NW 16.1 mph - N/A   Scattered Clouds
12:50 PM 68.0 °F 44.6 °F 43% 29.86 in 6.2 mi NW 13.8 mph - N/A   Scattered Clouds
1:20 PM 68.0 °F 44.6 °F 43% 29.86 in 6.2 mi NW 12.7 mph - N/A   Scattered Clouds
1:50 PM 68.0 °F 46.4 °F 46% 29.86 in 6.2 mi NW 11.5 mph - N/A   Scattered Clouds
2:20 PM 69.8 °F 48.2 °F 46% 29.86 in 6.2 mi NW 12.7 mph - N/A   Scattered Clouds
2:50 PM 68.0 °F 46.4 °F 46% 29.86 in 6.2 mi NNW 6.9 mph - N/A   Scattered Clouds
3:00 PM 69 °F 47 °F 34% 29.88 in 6 mi NNW 6.9 mph - -   Partly Cloudy
3:20 PM 68.0 °F 46.4 °F 46% 29.86 in 6.2 mi WNW 5.8 mph - N/A   Mostly Cloudy
3:50 PM 68.0 °F 46.4 °F 46% 29.86 in 6.2 mi WNW 5.8 mph - N/A   Mostly Cloudy
4:20 PM 68.0 °F 46.4 °F 46% 29.89 in 6.2 mi WNW 4.6 mph - N/A   Mostly Cloudy
4:50 PM 68.0 °F 48.2 °F 49% 29.89 in 6.2 mi Variable 3.5 mph - N/A   Mostly Cloudy
5:20 PM 68.0 °F 46.4 °F 46% 29.89 in 6.2 mi SSE 8.1 mph - N/A   Mostly Cloudy
5:50 PM 66.2 °F 48.2 °F 52% 29.89 in 6.2 mi SSE 10.4 mph - N/A   Mostly Cloudy
6:20 PM 66.2 °F 48.2 °F 52% 29.89 in 6.2 mi SSE 10.4 mph - N/A   Mostly Cloudy
6:50 PM 66.2 °F 48.2 °F 52% 29.92 in 6.2 mi SSE 9.2 mph - N/A   Mostly Cloudy
7:20 PM 64.4 °F 46.4 °F 52% 29.92 in 6.2 mi SE 8.1 mph - N/A   Mostly Cloudy
7:50 PM 64.4 °F 46.4 °F 52% 29.92 in 6.2 mi SE 8.1 mph - N/A   Mostly Cloudy
8:20 PM 62.6 °F 48.2 °F 59% 29.95 in 6.2 mi ESE 9.2 mph - N/A Rain Light Rain
8:50 PM 60.8 °F 48.2 °F 63% 29.95 in 6.2 mi ESE 4.6 mph - N/A Thunderstorm Thunderstorm
9:00 PM 61 °F 49 °F 55% 29.96 in 6 mi ESE 4.6 mph - - Thunderstorm Thunderstorm
9:20 PM 59.0 °F 51.8 °F 77% 29.98 in 6.2 mi South 5.8 mph - N/A Rain Rain
9:50 PM 59.0 °F 53.6 °F 82% 30.01 in 6.2 mi South 8.1 mph - N/A Rain Light Rain
10:20 PM 59.0 °F 51.8 °F 77% 30.01 in 6.2 mi South 3.5 mph - N/A   Mostly Cloudy
10:50 PM 57.2 °F 51.8 °F 82% 30.01 in 6.2 mi East 3.5 mph - N/A   Mostly Cloudy
11:20 PM 57.2 °F 51.8 °F 82% 30.04 in 6.2 mi Calm Calm - N/A   Mostly Cloudy
11:50 PM 57.2 °F 51.8 °F 82% 30.04 in 6.2 mi Variable 3.5 mph - N/A   Mostly Cloudy